Weather in Belaja Berezka

Russia / Bryansk Oblast     52°22′57″N   33°28′45″E
temp.,
°C
wind,
m/s
gust,
m/s
humid.,
%
clouds,
%
prec.,
mm/h
press.,
hPa
HPBL,
m
20 january, thu
thu2000:00−7ssw3897100 0.0 1017189
03:00−8ssw4998100 0.1 1015175
06:00−8s4109768 0.0 1013178
09:00−5s61295100 0.1 1011350
12:00−3s71595100 0.0 1008525
15:00−2ssw81592100 0.1 1006702
18:00−3ssw71489100 0.0 1004624
21:00−3ssw61396100 0.8 1003539
21 january, fri
fri2100:00−2ssw51095100 0.4 1002467
03:00−2ssw5995100 0.5 1001564
06:00−2sw51095100 0.4 999508
09:00−6sw499298 0.4 1000203
12:00−5ssw6119297 0.0 999580
15:00−4ssw71291100 0.1 997870
18:00−3sw71496100 0.9 996715
21:00−2wsw61193100 1.9 997709
22 january, sat
sat2200:00−4wsw51190100 0.3 999361
03:00−5wsw41093100 0.3 1000326
06:00−6sw4995100 0.0 1002261
09:00−6sw379699 0.1 1003230
12:00−5sw359399 0.2 1006365
15:00−4sw349293 0.4 1007415
18:00−8s2298100 0.1 101014
21:00−10s119877 0.3 101210
23 january, sun
sun2300:00−14sse01100100 0.1 10159
03:00−15ne1198100 0.1 10169
06:00−15ese119895 0.1 101815
09:00−17e1199100 0.1 10219
12:00−9ene2395100 0.1 1023203
15:00−6ene3490100 0.1 1024427
18:00−11ne369792 0.0 102671
21:00−15ne359753 0.1 102863
24 january, mon
mon2400:00−17nne249957 0.0 103046
03:00−17nne3799100 0.0 103096
06:00−16nne499799 0.0 1029146
09:00−15n4109698 0.0 1029175
12:00−10nne6119183 0.1 1028330
15:00−8nne479298 0.1 1027350
18:00−13n349868 0.0 102742
21:00−14n3798100 0.0 102795